Chennai, India

4:23 PM IST on February 09, 2016 (GMT +0530)
Chennai International | | Change Station
CLOSE
Current Station
Airport
Location: Chennai,
Elevation: 52 ft
Nearby Weather Stations

Elev 52 ft 12.99 °N, 80.18 °E | Updated 23 minutes ago

Partly Cloudy
Partly Cloudy
86 °F
Feels Like 88 °F
N
8
Wind Variable Wind from East

Today
High -- | Low -- °F
--% Chance of Precip.
Yesterday
High -- | Low -- °F
Precip. -- in
Pressure 29.80 in
Visibility 3.7 miles
Clouds Few 2000 ft
Heat Index 88 °F
Dew Point 66 °F
Humidity 51%
Rainfall 0.00 in
Snow Depth Not available.
6:34 AM 6:13 PM
New Moon, 1% visible
METAR VOMM 091030Z 09007KT 6000 FEW020 30/19 Q1009 NOSIG
Pressure 29.80 in
Visibility 3.7 miles
Clouds Few 2000 ft
Heat Index 88 °F
Dew Point 66 °F
Humidity 51%
Rainfall 0.00 in
Snow Depth Not available.
6:34 AM 6:13 PM
New Moon, 1% visible
METAR VOMM 091030Z 09007KT 6000 FEW020 30/19 Q1009 NOSIG

10-Day Weather Forecast

No radar image for this location.
×

Almanac

Astronomy

Feb. 09, 2016 Rise Set
Actual Time
Civil Twilight
Nautical Twilight
Astronomical Twilight
Moon
Length of Visible Light
Length of Day
Tomorrow will be .
, % of the Moon is Illuminated

Today's Extremes

Country Highs Country Lows

Community

WunderPhotos

Upload Photos

1,891,565 photos uploaded!

WunderBlog® & News

Nearby

Air Quality

  Air Quality AQ Index Pollutant
Not available.

Snow Depth

Station Depth Elevation

Earthquake Activity

City Distance Mag. Time & Date
Minimum magnitude displayed is 2.5.

Coastal Water Temperatures

Place Temperature

Stations

Nearby Weather Stations

Station Location Temp. Windchill Dew Point Humidity Wind Precip. Elev Updated Type